Location: San Antonio
(29.4240°N, 98.4930°W)
Time: 22:26:30
(UTC-05:00)

Hubble Space Telescope - Pass Details

Date: 25 June 2024
Orbit: 510 x 513 km, 28.5° (Epoch: 18 July)

Event Time Altitude Azimuth Distance (km) Brightness Sun altitude
Exits shadow 04:53:17 15° 154° (SSE) 1,415 2.7 -19.2°
Drops below altitude 10° 04:55:35 10° 118° (ESE) 1,715 3.6 -18.8°
Sets 04:58:33 0° 95° (E) 2,601 4.9 -18.3°
